Theta_e
313 315 318 320 321 323 325 326 326 327 327 327 326 326 327 327 327 328 328 328 328 328 327 327 327 327 327 326 326 326 326 325 326 325 324 324 323 323 322 323 322 322 321 321 322 321 320 320 320 321 321 320 319 319 319 320 320 319 319 318 317 318 317 314 311 310 306 299 303 301 299 298 295 296 293 292 291 293 294 295 295 295 295 295 296
312 314 315 318 320 322 324 325 326 326 326 326 326 326 327 327 327 327 327 328 328 328 327 328 327 327 326 326 325 325 325 325 325 325 324 323 322 323 322 322 321 321 321 320 320 321 320 319 319 320 320 319 319 318 318 318 318 317 316 316 316 315 317 315 312 309 308 295 295 296 296 297 293 295 293 290 290 291 292 293 293 294 293 293 294
313 315 316 318 320 322 323 324 325 326 326 326 326 326 326 327 327 327 326 327 328 327 327 327 327 327 326 325 325 325 325 325 325 324 324 323 322 322 322 321 321 320 320 319 320 320 319 318 317 318 319 316 316 317 317 316 316 315 315 315 315 314 314 314 312 308 308 300 295 293 293 294 294 292 294 293 291 291 290 290 291 291 292 292 292
312 313 315 316 318 320 321 322 323 324 325 326 326 326 327 327 327 327 327 327 326 326 327 326 326 326 325 324 324 324 324 324 324 323 324 323 321 321 321 321 321 321 320 319 319 319 318 317 316 316 316 315 315 315 316 316 315 315 315 315 314 314 314 313 313 311 308 305 291 293 292 291 290 292 293 291 289 288 289 289 290 289 289 290 290
309 310 312 313 315 317 319 321 322 323 324 325 325 326 326 326 326 326 326 325 325 325 325 325 324 324 324 323 323 323 323 323 323 323 323 323 322 321 321 321 320 320 320 320 312 319 318 316 316 315 315 314 314 314 315 314 315 315 314 314 313 313 313 312 311 310 307 303 290 289 290 289 288 289 289 288 287 287 287 287 287 288 288 288 288
307 307 309 310 312 314 317 318 319 321 322 323 324 324 325 325 326 326 325 324 324 324 324 324 323 323 323 323 323 322 322 322 322 322 322 322 322 321 321 320 320 320 320 320 320 319 318 317 316 316 315 314 313 314 314 314 314 313 312 312 311 310 308 305 304 302 302 298 291 288 288 287 287 287 288 288 286 285 285 286 286 287 286 285 286
306 305 306 307 309 311 314 316 317 318 319 320 321 322 322 323 324 323 323 323 322 322 322 322 322 323 322 322 322 322 322 322 322 322 322 321 321 320 320 320 319 319 319 319 319 319 318 317 316 316 315 315 315 314 314 313 313 312 311 311 309 305 302 301 299 299 299 296 290 291 289 288 288 286 287 288 287 285 284 283 283 284 285 284 283
305 305 305 306 307 309 311 313 315 316 317 317 318 318 319 320 320 321 321 321 322 321 321 321 322 322 322 322 322 321 321 321 321 321 320 320 320 319 319 318 318 318 317 317 317 317 317 317 316 316 316 316 316 315 315 313 312 311 310 309 306 303 302 300 299 298 297 295 294 291 290 288 287 286 286 286 284 284 285 284 283 282 282 284 284
304 304 305 305 306 308 309 310 311 311 311 312 312 313 314 315 316 317 317 318 318 319 319 319 319 320 320 320 320 320 320 320 320 320 320 319 319 318 318 317 316 315 316 316 316 316 316 316 317 317 314 305 304 306 307 307 313 309 306 304 302 301 300 299 298 297 295 294 291 289 288 286 286 284 283 283 284 286 285 285 285 284 283 283 283
303 303 304 305 306 307 307 307 307 307 307 307 308 309 310 311 312 313 313 313 313 314 315 316 316 317 317 317 317 317 318 319 307 306 307 317 318 318 317 316 315 315 314 314 313 314 315 316 313 303 301 299 299 300 301 302 302 309 310 304 301 299 298 296 296 295 295 293 293 289 288 288 287 285 285 286 287 287 285 285 285 285 283 282 283
303 303 303 305 305 305 305 304 305 304 304 304 304 305 306 307 307 307 308 309 309 310 310 310 311 313 314 315 315 315 315 315 305 305 305 304 312 317 316 316 315 315 314 313 313 309 309 309 313 304 298 298 299 298 300 300 300 300 301 299 300 302 297 295 295 296 295 294 295 293 292 291 290 288 287 287 286 287 286 285 285 285 283 281 281
303 304 304 305 305 304 304 304 303 302 302 302 302 302 302 301 302 303 303 302 303 302 304 306 307 309 310 312 312 313 314 304 304 304 303 304 302 311 316 315 315 314 314 313 313 310 307 307 306 309 306 304 304 302 298 297 298 297 298 297 297 298 299 299 296 294 294 294 293 294 294 293 292 289 288 288 287 287 287 286 286 285 285 284 285
304 304 304 305 305 305 305 304 304 303 303 302 302 301 299 298 298 298 298 299 296 299 301 302 303 305 306 307 308 310 311 304 303 302 302 302 302 303 312 314 314 313 313 312 311 308 305 303 303 303 306 295 296 302 302 299 294 295 295 295 295 296 298 298 298 300 299 295 294 295 296 296 293 291 290 290 289 287 286 285 286 286 286 286 286
303 303 304 304 304 304 304 303 303 303 302 301 300 300 299 299 299 298 298 297 297 297 297 297 299 301 303 304 305 307 307 303 302 301 300 300 301 301 308 311 312 313 311 310 309 306 306 305 304 302 300 298 298 298 299 298 297 295 295 295 296 294 294 295 295 294 296 298 297 296 298 298 296 295 291 291 288 287 286 286 286 286 286 286 286
303 304 304 304 304 304 304 303 302 302 301 300 300 299 298 298 298 298 297 297 297 297 296 297 298 297 299 300 302 303 305 301 300 300 299 299 300 299 307 309 310 310 311 308 306 305 305 306 304 303 301 298 297 297 297 297 296 295 293 293 295 296 296 296 296 296 296 298 299 300 299 297 298 296 291 291 290 289 289 288 287 287 286 284 282
303 303 303 303 304 303 303 302 302 301 300 300 299 298 298 298 297 297 295 296 296 296 295 295 295 296 297 298 298 299 301 299 299 298 298 299 299 301 304 306 307 307 307 305 303 303 303 303 302 301 301 299 295 294 296 297 295 292 291 291 292 293 294 293 295 295 296 296 297 297 296 296 296 295 291 291 290 289 288 287 287 286 285 284 284
301 301 301 302 302 302 302 301 300 299 299 298 298 298 297 297 296 294 295 294 295 294 295 295 296 296 295 295 297 298 299 298 297 297 297 298 298 301 302 302 303 303 304 303 302 301 300 300 300 300 300 300 296 295 296 295 294 291 291 290 290 291 291 291 292 294 294 294 294 294 293 295 296 295 293 293 290 289 288 286 285 286 285 283 284
300 300 300 300 300 300 300 300 299 298 298 297 297 298 298 297 295 293 296 294 294 295 295 295 295 296 295 295 296 296 297 296 296 296 296 296 296 300 300 300 300 300 301 301 300 299 298 293 294 300 299 299 296 295 296 294 294 291 291 290 289 289 290 289 288 289 290 290 291 290 291 292 293 293 293 293 292 289 288 287 287 286 285 285 285
299 299 299 300 300 299 299 299 298 297 297 296 297 295 294 293 294 293 295 295 294 295 293 293 293 293 295 295 291 294 295 295 295 296 295 296 295 299 299 298 298 299 299 300 298 297 297 293 291 294 298 298 296 295 295 294 295 291 291 290 289 289 290 288 288 287 286 286 286 287 287 288 289 290 290 291 290 288 290 289 287 286 286 286 286
299 299 299 299 299 298 298 297 297 296 293 295 292 293 293 293 292 292 292 293 293 294 294 292 291 292 292 294 293 294 295 295 295 294 295 295 296 296 297 297 296 297 297 298 298 294 294 294 292 292 295 296 296 295 294 294 295 292 292 292 291 291 291 288 288 289 288 288 287 286 286 286 287 287 288 288 288 287 288 288 288 287 287 287 286
298 298 298 298 298 298 297 296 295 294 293 293 292 291 292 292 292 292 292 292 292 292 291 290 290 291 292 292 293 293 294 293 293 293 294 294 295 294 295 296 298 297 297 296 296 296 294 294 294 292 293 295 295 295 294 294 294 293 293 293 294 293 290 289 287 287 287 287 286 286 286 286 286 286 287 287 287 287 287 287 287 287 287 287 286
297 297 297 297 296 296 295 294 291 291 291 290 290 291 291 290 290 291 292 292 290 289 289 289 290 291 291 291 291 292 291 290 293 292 293 294 294 294 294 295 296 297 296 296 296 296 297 296 295 292 292 293 294 294 294 294 294 292 293 295 295 293 290 290 288 288 287 287 286 285 285 285 285 285 286 286 286 286 286 286 285 286 284 282 283
296 296 295 294 291 292 291 290 290 290 290 290 289 289 290 290 289 289 289 289 289 288 289 289 289 290 290 291 292 293 294 293 290 291 291 292 293 294 294 294 295 295 297 297 297 298 298 298 295 290 291 291 293 293 294 294 292 292 294 294 293 292 290 289 288 287 287 286 285 285 285 285 285 285 285 285 286 286 285 283 281 280 278 277 276
295 293 290 291 291 290 289 289 290 290 290 289 289 289 289 289 289 290 291 290 290 290 291 290 290 290 290 291 291 293 294 294 291 289 291 291 293 293 294 294 294 293 295 297 299 299 296 295 293 291 290 291 292 293 293 292 291 293 293 293 291 289 289 288 287 287 286 286 285 285 285 285 285 285 285 286 285 283 279 278 277 276 275 275 275
290 289 289 289 289 289 289 289 289 289 289 289 289 290 289 289 290 290 290 290 290 290 291 291 291 291 291 291 292 293 294 294 294 292 289 289 291 293 293 294 294 294 293 295 297 298 295 294 293 291 290 290 291 292 291 291 291 292 292 291 288 288 288 287 287 287 286 285 286 286 285 285 286 286 285 282 279 278 276 275 274 274 274 274 274
288 288 288 289 289 289 288 289 289 289 289 290 290 290 290 290 291 291 291 291 291 290 290 290 291 290 290 291 292 292 292 293 293 293 290 288 289 290 291 292 291 291 291 293 292 293 293 293 292 291 290 290 290 290 289 290 290 289 289 288 288 288 288 287 287 286 286 286 286 286 286 286 283 281 280 279 278 277 275 275 274 274 275 275 274
288 288 288 289 289 289 289 290 291 290 290 290 291 292 292 291 290 290 291 291 291 291 291 290 290 290 290 291 291 291 291 292 292 293 292 291 290 289 290 289 289 289 290 291 291 292 291 291 291 291 290 289 288 288 288 288 288 288 288 288 288 288 288 288 287 287 287 287 286 286 286 282 280 279 278 279 278 277 277 276 276 275 276 276 274
288 288 288 289 289 290 289 289 289 291 291 290 292 292 292 291 291 291 291 291 291 291 291 291 291 291 291 291 291 291 291 292 292 292 292 292 292 291 291 290 290 291 291 291 291 291 290 288 288 288 287 287 287 287 288 288 288 288 288 288 288 287 287 287 287 287 288 288 287 285 280 279 279 279 279 279 278 277 277 277 276 276 277 276 274
288 288 288 289 290 290 290 290 290 291 291 290 291 291 291 291 291 291 291 292 291 291 291 291 291 291 292 291 291 291 291 291 291 292 291 291 290 291 290 290 291 291 291 292 289 287 287 287 287 286 286 286 286 287 287 287 287 287 287 287 287 286 286 286 286 286 287 286 283 281 280 280 280 279 279 278 277 277 278 277 277 276 277 277 275
288 288 289 289 289 290 290 291 290 290 290 291 290 291 290 289 290 291 291 289 289 289 290 291 292 292 292 292 292 291 291 292 292 292 291 290 290 290 290 291 291 291 290 291 289 289 287 287 287 286 286 286 285 286 286 286 286 286 286 286 286 286 286 286 286 286 286 285 284 281 280 280 279 279 279 277 276 277 277 278 276 276 276 276 276
289 289 289 289 289 289 289 290 290 290 290 290 290 290 290 291 290 289 289 289 289 289 288 289 289 289 290 290 291 291 291 291 290 291 290 290 290 290 290 291 291 291 291 289 288 289 288 287 287 287 287 287 287 287 287 286 286 285 285 285 285 285 284 285 285 286 285 284 282 281 281 280 279 279 278 276 276 276 276 277 276 276 276 277 276
288 288 289 289 289 289 290 290 289 290 290 290 290 290 290 289 291 290 289 288 288 288 288 288 288 288 289 289 288 290 290 290 290 290 289 289 289 290 290 290 291 291 291 290 288 288 288 288 287 287 287 287 287 287 287 287 286 286 286 285 284 284 284 284 285 285 284 283 281 280 280 279 279 278 277 276 275 275 275 275 275 275 276 276 276
287 287 288 288 289 289 289 289 289 289 289 289 289 289 289 289 289 289 291 288 288 288 288 288 288 288 288 288 288 288 289 289 290 290 289 289 289 289 289 290 291 291 291 288 289 289 289 288 288 288 288 287 288 287 287 287 287 287 286 285 284 284 284 284 284 283 283 282 281 280 280 279 278 278 276 275 275 274 274 274 275 275 275 275 275
287 287 288 288 288 288 289 289 289 289 289 289 289 289 289 289 289 289 288 289 290 289 288 287 287 288 288 288 288 288 288 288 288 288 289 289 289 289 289 289 290 291 290 288 288 289 290 289 289 289 289 288 288 288 287 287 287 287 287 286 285 285 284 284 282 282 281 281 280 280 279 278 278 277 275 275 275 275 274 274 274 274 274 274 274
287 287 287 287 288 288 289 289 289 289 289 288 288 288 288 288 288 288 288 288 288 288 289 290 288 286 287 288 288 288 288 288 288 288 288 289 289 289 290 288 287 288 289 289 288 289 289 289 289 289 289 289 288 288 288 287 287 287 286 285 284 284 283 282 282 282 281 280 279 279 278 277 277 276 275 274 274 273 273 273 274 274 274 274 273
287 287 288 287 288 288 288 288 288 287 287 288 288 288 288 288 288 288 288 288 288 288 289 290 290 288 287 286 287 287 287 287 288 288 288 288 289 289 287 286 287 287 287 288 288 288 289 290 290 290 290 289 289 288 288 288 287 287 286 285 284 283 282 281 281 280 280 280 279 278 278 277 277 276 276 275 274 274 273 273 273 274 274 273 273
287 287 287 287 287 287 287 286 286 286 286 286 287 287 287 287 287 288 288 288 288 288 288 289 289 290 288 287 287 286 287 287 287 288 288 288 289 288 288 288 288 288 287 287 288 288 288 289 290 290 290 289 289 289 289 288 288 287 286 285 285 283 282 281 280 279 279 278 278 278 277 276 276 276 275 274 274 274 273 273 273 273 273 273 273
285 286 286 286 285 285 285 285 285 285 286 286 286 286 286 287 287 287 287 287 288 288 288 288 288 288 288 289 287 287 287 286 286 286 287 287 287 288 288 288 288 288 288 288 288 288 288 289 290 290 290 290 289 289 289 288 287 287 285 284 284 283 281 280 280 279 279 279 278 277 276 276 276 276 275 274 273 273 273 273 273 272 272 272 272
284 284 284 284 284 284 284 284 284 284 285 285 286 286 286 286 287 287 287 288 288 288 288 288 288 288 289 290 289 287 286 286 286 286 286 287 288 288 288 288 288 288 288 288 288 288 288 288 289 289 289 289 288 288 288 288 287 286 285 284 283 282 280 280 280 280 279 278 277 277 276 276 276 276 275 275 274 273 273 272 272 272 271 271 272
281 281 282 283 282 283 283 283 283 284 284 284 285 286 286 286 286 287 287 287 287 287 288 288 288 288 289 289 289 288 286 286 286 287 287 287 287 288 288 288 288 288 288 288 288 288 288 288 289 289 289 288 288 287 287 287 286 285 284 283 282 281 280 280 279 279 278 278 277 276 276 276 276 275 275 275 274 273 273 272 272 272 272 272 272
279 279 279 280 281 281 281 282 282 282 283 284 285 285 285 286 286 286 287 287 287 287 287 287 288 289 289 288 288 288 288 288 287 287 287 287 287 288 288 288 288 288 288 288 289 289 289 288 289 289 288 288 287 287 287 286 285 284 283 282 282 281 280 280 279 279 278 277 277 276 276 275 275 275 274 274 274 274 273 272 272 272 272 272 272
277 277 277 278 279 279 279 280 281 282 282 283 284 285 285 285 286 286 286 286 286 287 287 287 288 288 288 287 287 287 288 288 288 288 288 288 288 288 288 288 288 288 289 289 289 289 289 288 288 288 288 287 286 286 286 285 285 284 283 282 281 280 280 279 279 278 278 277 277 276 276 275 275 275 274 275 273 273 272 272 272 272 271 271 271
275 275 276 277 277 277 278 279 280 280 281 282 283 282 284 285 285 286 286 286 286 286 286 286 287 288 288 287 287 286 287 288 285 288 288 288 288 288 288 288 288 289 289 289 290 289 289 288 288 288 287 287 286 286 285 285 284 284 283 282 281 280 279 279 278 278 278 277 276 276 275 275 275 274 274 273 273 272 272 272 271 271 271 271 270
274 274 274 275 276 276 277 277 278 279 280 280 281 282 283 284 284 284 285 285 285 286 286 286 286 287 287 287 287 287 287 287 287 287 287 287 288 288 288 289 289 289 289 289 289 289 288 288 287 287 286 286 286 285 285 285 284 284 283 282 280 279 279 278 278 277 277 276 276 275 275 274 274 274 273 273 272 272 271 271 271 270 270 270 270
272 272 273 273 274 275 275 277 277 278 279 279 280 281 282 282 282 283 283 283 284 284 285 285 286 286 286 286 287 287 287 287 286 286 287 287 287 287 288 288 288 288 288 288 288 287 287 286 286 285 283 283 284 284 284 284 284 284 283 282 281 279 279 279 278 278 277 276 275 274 274 274 274 274 273 272 272 271 271 271 270 270 269 269 269
270 271 271 272 272 273 274 274 276 276 277 277 278 279 280 281 281 282 282 283 283 283 284 284 285 285 285 285 286 286 286 286 286 286 286 286 287 287 288 288 288 288 288 287 286 285 285 285 284 283 282 282 282 282 282 282 282 282 283 282 282 281 281 280 279 277 276 276 274 274 274 273 273 273 272 272 272 271 271 271 270 270 270 269 269
269 270 270 270 271 272 273 274 274 274 275 276 277 278 279 280 281 281 281 282 282 282 283 283 283 283 284 284 285 285 285 285 285 285 285 286 286 287 287 287 286 285 285 284 283 283 283 282 282 282 281 281 281 280 280 280 280 280 280 280 280 279 278 278 277 277 276 275 275 274 273 273 272 272 271 271 271 271 270 270 270 269 269 269 269
268 269 269 270 270 270 271 272 272 273 274 275 276 277 278 278 279 279 279 280 280 281 281 282 282 282 282 283 283 284 284 284 284 284 285 285 286 285 285 283 282 282 281 280 280 279 279 279 278 278 278 277 277 277 278 278 278 278 278 278 278 278 276 275 276 276 275 275 275 274 273 273 272 272 271 271 271 270 269 269 269 269 268 268 268
267 267 267 268 269 269 270 271 272 273 274 275 276 277 277 278 278 278 278 279 279 279 280 280 281 281 281 282 282 282 282 282 283 283 283 283 281 279 280 280 278 279 278 278 277 276 276 275 275 276 275 275 275 275 275 275 275 276 276 276 275 273 273 274 274 275 274 275 274 274 274 273 272 271 271 271 270 270 270 269 269 268 268 267 267
266 267 267 268 268 269 270 271 272 273 274 274 274 275 275 276 276 277 277 278 278 278 279 279 279 280 280 280 280 280 281 281 281 281 279 278 276 276 276 276 276 275 275 273 273 273 273 273 273 273 272 272 272 272 272 272 272 273 273 273 272 273 273 274 274 273 274 275 274 274 273 272 272 271 271 271 270 269 269 268 268 268 267 267 266
267 267 268 268 269 270 270 271 271 271 272 273 273 274 274 274 275 276 276 276 277 277 277 278 278 278 278 279 278 278 278 278 277 276 274 273 273 273 273 273 273 272 271 271 271 271 271 272 271 271 271 270 270 269 269 269 269 270 270 272 272 272 272 272 273 272 273 273 274 273 272 271 271 270 270 270 270 269 268 268 268 267 266 266 266
Wind_Speed
7 7 7 8 9 9 8 7 9 8 9 10 10 10 10 9 9 8 7 9 8 9 10 10 11 11 11 11 12 12 13 13 12 11 11 11 12 12 12 13 14 12 12 13 12 12 13 13 12 12 11 11 9 8 9 10 9 9 9 9 10 9 9 9 10 9 2 3 2 2 4 8 4 6 8 7 9 9 9 8 9 9 9 9 11
6 7 7 7 8 7 8 7 7 8 9 9 10 9 8 8 7 7 9 8 8 8 10 9 9 10 10 11 11 12 13 13 13 11 11 12 13 11 12 13 13 13 12 13 13 10 11 12 12 11 11 11 10 10 9 10 10 10 9 9 10 9 9 9 9 8 8 2 2 2 3 3 5 6 10 10 9 7 9 8 7 9 9 9 9
5 5 6 6 7 7 6 7 7 8 9 8 9 9 8 8 7 7 8 7 7 8 9 9 9 9 9 10 11 11 12 12 12 12 12 12 13 13 13 13 13 13 13 13 13 11 11 11 12 10 8 10 10 11 10 10 10 11 11 9 11 10 9 9 8 8 8 5 5 6 5 4 6 7 9 8 7 8 9 8 8 7 6 8 7
4 4 4 5 6 6 7 6 7 7 8 8 8 8 7 7 7 8 8 7 8 8 8 10 10 10 10 10 10 10 10 11 11 12 13 13 13 14 14 14 14 14 14 13 12 12 13 11 11 11 10 11 10 10 10 10 10 10 11 10 10 10 9 8 9 8 7 9 4 6 5 7 2 4 5 5 7 7 7 4 4 6 6 5 7
3 3 3 5 5 5 6 5 5 6 7 6 6 6 6 6 6 8 7 8 8 8 8 8 9 10 10 11 11 11 11 12 13 12 12 11 13 13 14 14 14 14 13 12 12 13 13 13 11 11 11 12 11 11 10 12 10 10 10 9 9 8 8 9 10 9 8 8 4 0 3 2 2 3 6 7 5 5 4 6 5 6 5 3 4
2 2 3 3 4 5 5 5 5 6 6 5 6 6 6 7 7 6 7 9 8 8 9 8 9 10 10 10 11 12 12 12 12 13 13 12 12 13 13 13 13 13 12 12 12 12 12 12 11 11 12 12 11 11 11 12 11 11 10 9 8 8 9 8 8 7 8 6 8 4 3 6 3 2 5 5 8 6 5 2 0 4 6 6 5
2 3 4 4 5 5 5 5 5 5 5 5 5 5 6 6 6 7 6 7 8 8 8 9 8 8 10 10 11 12 12 11 11 12 12 12 13 12 12 12 12 11 11 12 12 12 12 12 12 12 13 13 13 12 11 11 11 11 11 10 9 8 8 8 7 7 7 6 4 5 7 4 4 4 3 3 4 6 8 6 5 6 6 7 6
2 3 4 5 5 5 5 5 5 5 5 5 5 6 5 5 6 6 6 7 8 9 9 9 9 8 9 10 11 10 10 10 10 11 11 12 11 11 11 11 11 11 11 11 11 11 12 12 12 12 13 12 12 11 11 11 10 10 10 9 9 9 9 7 7 7 6 6 7 7 5 5 4 3 5 5 5 2 6 7 10 9 9 7 7
2 3 4 4 5 4 4 4 3 4 4 5 6 5 5 5 5 6 6 7 6 7 8 8 9 10 11 11 11 10 11 11 10 10 11 12 11 12 11 11 11 12 12 12 12 12 11 12 12 12 13 15 18 16 14 13 11 10 9 8 9 9 8 7 7 6 5 6 4 2 5 5 6 7 7 8 12 12 9 8 7 4 4 4 5
2 3 4 4 4 3 3 3 3 3 4 5 5 4 4 4 5 5 6 7 7 6 7 8 9 10 11 11 11 11 12 11 12 17 15 12 11 11 11 12 12 12 12 12 12 12 12 11 12 16 16 16 16 17 17 17 17 14 10 10 10 9 8 8 7 7 7 8 8 7 7 8 9 10 10 10 6 4 7 8 8 4 5 4 4
2 3 4 5 4 3 3 3 2 3 4 4 4 4 5 4 5 6 7 7 7 7 7 9 10 10 10 11 11 11 11 12 16 15 17 18 14 12 12 12 12 12 12 13 13 11 10 10 9 12 14 16 16 19 18 19 19 19 17 15 14 13 10 9 8 9 8 8 8 8 9 9 9 9 10 8 7 8 6 7 7 5 7 8 8
2 3 3 4 3 3 3 3 3 4 5 6 6 5 5 5 6 7 7 8 8 5 8 9 10 10 10 10 11 12 11 13 14 16 17 18 17 13 11 11 11 11 12 12 12 10 10 10 10 10 10 10 10 10 13 16 16 16 16 15 16 17 16 14 10 7 7 7 7 9 9 10 8 9 9 8 9 7 6 7 9 10 9 9 7
3 3 3 4 4 3 3 3 4 5 5 4 4 4 5 7 7 7 9 7 5 7 9 9 11 10 10 11 12 11 11 12 13 16 16 16 17 15 12 12 11 11 11 11 11 10 9 8 8 7 8 12 10 9 9 11 14 16 16 15 16 17 16 16 15 14 11 10 10 9 10 9 9 10 11 12 8 8 7 7 7 8 8 8 8
3 3 4 4 3 3 3 4 5 5 5 4 4 5 6 7 6 6 6 6 7 8 7 9 10 9 10 11 11 10 11 12 13 14 14 15 15 14 12 13 12 12 11 10 10 10 10 10 10 9 7 8 8 9 8 8 8 8 8 8 8 11 13 14 14 14 13 12 11 12 11 10 12 11 10 10 11 11 10 10 9 8 9 9 2
3 3 3 3 3 3 4 4 5 6 5 5 5 6 7 7 7 6 6 7 7 8 8 9 10 9 9 9 10 12 12 13 13 13 13 14 14 13 11 11 11 12 11 10 9 9 10 10 10 9 9 9 9 11 10 9 9 9 9 8 9 9 10 10 10 9 9 8 10 11 8 9 9 6 10 11 13 11 12 11 12 10 4 5 5
4 3 3 4 3 3 3 5 5 6 6 6 6 8 7 8 9 7 6 6 6 7 8 8 10 9 9 9 10 13 12 14 14 13 13 13 13 10 10 11 12 12 11 10 8 9 9 9 9 10 9 10 12 16 14 10 9 9 9 8 7 6 7 8 10 9 8 8 7 7 7 8 9 8 11 12 9 6 4 4 6 5 6 5 6
5 5 5 4 5 5 5 5 6 7 7 8 9 9 9 9 7 4 6 5 7 8 8 9 9 9 10 10 11 13 12 12 14 15 14 14 11 9 9 9 10 11 12 10 9 9 9 9 8 9 9 9 13 17 17 14 8 10 9 9 7 7 7 5 7 10 11 11 9 7 7 9 13 13 16 17 12 9 7 6 7 8 7 8 6
7 7 7 7 7 6 6 6 6 8 8 9 10 10 9 8 6 4 7 8 8 8 7 8 8 9 10 11 11 12 13 11 15 14 14 14 12 9 8 9 10 10 11 10 9 8 9 13 12 10 10 10 12 17 18 15 10 10 9 9 9 9 8 5 4 4 5 6 7 7 7 8 11 14 16 17 17 14 11 11 9 9 9 8 8
7 9 9 9 8 7 6 6 6 7 8 8 8 9 7 7 7 5 6 6 8 6 5 6 7 6 9 11 12 14 14 12 14 15 15 15 11 10 9 8 10 11 10 11 8 7 7 9 14 13 11 12 15 16 17 15 11 11 11 10 11 12 11 10 9 8 6 5 5 6 4 7 8 8 11 18 18 15 11 8 8 10 10 8 7
8 7 8 9 8 8 7 8 7 7 6 9 6 6 7 7 6 6 6 5 6 5 5 5 8 9 6 10 10 11 13 12 10 14 14 15 17 11 7 8 11 11 9 9 7 6 7 7 9 15 16 14 16 18 18 18 12 9 9 12 12 14 8 10 11 11 11 11 8 7 6 5 4 5 7 11 12 12 9 5 7 9 8 8 8
6 7 7 8 8 9 8 8 10 10 7 8 8 7 6 6 6 6 7 6 6 7 7 6 8 10 8 8 10 11 10 12 10 12 14 15 16 15 8 11 10 8 9 8 8 9 8 9 8 11 15 14 14 16 18 20 16 11 12 12 14 9 13 11 11 10 7 7 6 6 6 5 5 5 6 7 8 8 7 6 5 7 7 7 7
6 6 7 7 8 9 9 9 6 7 8 7 9 9 6 5 6 6 6 6 8 9 8 7 8 10 8 8 9 11 10 14 12 12 15 16 16 17 11 10 10 8 9 9 9 9 10 8 8 9 13 14 13 15 17 18 20 10 12 13 9 13 14 9 10 9 7 7 6 6 6 7 6 6 6 7 7 8 7 5 3 4 1 1 3
6 6 6 8 6 8 6 7 8 6 7 7 8 10 9 8 8 5 6 7 8 10 10 8 9 11 10 9 8 11 11 11 15 13 15 16 15 15 17 13 12 10 11 12 12 11 8 9 8 12 15 16 16 17 17 18 16 13 15 14 11 13 11 7 8 9 8 8 8 8 8 8 8 8 7 7 7 7 5 5 4 5 5 4 5
7 8 6 8 7 7 7 7 6 6 6 7 6 8 9 8 8 7 6 6 8 9 9 7 7 10 11 11 9 9 9 9 11 16 14 15 16 17 17 18 16 12 11 11 10 9 8 7 7 13 15 16 16 15 15 15 12 16 15 14 13 12 7 7 8 9 9 9 9 9 9 8 7 7 7 7 7 7 7 7 6 6 6 6 6
7 7 7 7 8 8 8 7 7 7 6 5 7 7 7 6 8 7 5 7 7 8 10 8 8 10 10 12 11 8 7 6 8 10 15 15 17 18 19 20 20 19 13 11 9 7 7 12 14 16 17 17 18 16 13 14 16 14 15 16 15 8 8 8 9 9 9 11 11 9 8 9 8 6 6 8 10 11 9 7 7 7 8 9 8
7 8 7 7 8 8 9 10 7 6 6 5 6 6 7 8 8 8 6 7 7 8 10 9 9 10 10 11 11 10 8 7 8 6 7 11 12 16 19 19 18 17 17 14 13 13 12 12 13 15 14 13 10 8 8 9 13 13 12 13 9 9 9 9 9 11 11 10 10 10 9 7 6 8 10 10 9 9 8 8 8 6 6 7 7
8 7 8 8 8 7 8 8 9 8 6 5 5 6 6 6 7 9 8 8 8 9 9 10 10 10 11 11 11 10 10 9 7 5 5 4 5 6 9 10 12 13 12 11 12 9 8 8 7 9 7 11 12 10 9 9 9 10 8 9 9 9 9 10 11 11 10 9 9 8 6 7 7 7 7 8 9 7 7 9 8 7 6 6 8
8 10 10 9 8 7 7 10 9 8 7 6 8 8 6 5 7 9 8 7 8 10 9 10 11 11 11 11 10 10 11 9 6 4 5 5 5 4 5 6 7 7 9 8 6 5 4 3 4 4 4 4 4 3 4 4 6 7 8 8 8 7 8 8 6 6 7 7 7 7 9 7 6 6 7 8 8 8 8 8 8 8 6 7 7
8 9 8 7 8 7 7 7 6 7 8 7 7 7 9 9 8 11 9 7 8 10 11 12 11 8 8 10 10 11 12 11 5 6 6 8 7 5 5 6 6 7 10 9 4 3 3 4 5 6 6 8 8 7 6 6 6 7 7 6 7 7 7 8 10 9 7 7 9 10 10 7 7 9 9 6 8 8 8 7 7 8 6 5 6
9 10 8 8 8 8 7 7 6 7 8 9 9 10 11 14 13 10 13 11 16 19 15 14 12 7 9 11 8 11 14 10 7 8 9 10 12 13 12 11 11 9 9 13 10 7 7 8 7 8 8 9 9 9 9 8 8 8 7 7 6 7 8 8 8 8 7 8 9 11 11 10 7 8 7 7 7 8 8 8 8 7 8 7 7
9 9 8 8 9 9 9 9 8 7 8 8 9 10 14 11 15 20 20 19 18 18 19 21 22 19 14 15 14 16 19 19 15 14 11 10 11 13 13 13 14 14 12 9 8 10 9 8 8 8 10 10 10 11 11 10 11 10 10 10 9 9 8 8 8 7 8 8 8 10 10 11 10 7 8 7 10 10 8 7 7 7 7 7 7
10 11 10 9 11 10 8 9 9 9 9 8 8 10 10 13 18 11 15 19 18 19 20 20 20 19 20 19 16 14 15 16 17 13 12 11 11 12 13 14 15 15 15 16 11 11 8 9 10 10 10 11 12 10 11 12 11 12 11 10 11 10 10 10 9 8 8 8 9 10 11 10 9 9 7 7 11 11 10 9 8 8 7 6 6
10 12 11 10 11 11 9 10 10 10 10 10 10 8 9 11 12 17 14 11 16 17 17 18 19 20 20 21 21 20 20 17 17 16 12 12 12 12 13 16 16 17 16 13 12 10 9 10 11 11 11 13 11 12 11 10 11 11 12 12 12 11 11 10 9 9 9 10 11 11 10 11 11 9 9 7 9 11 10 9 8 8 7 7 6
9 10 10 11 12 12 10 9 10 10 10 10 10 10 10 9 11 12 14 17 14 11 14 17 18 18 20 20 19 19 19 20 20 20 20 17 14 13 14 13 16 18 16 13 12 13 12 12 13 13 13 12 11 10 10 11 11 11 11 11 10 9 10 9 9 11 10 10 11 10 9 11 10 11 7 6 7 10 9 9 9 9 8 8 8
9 12 15 12 9 11 10 10 10 10 10 10 10 10 10 10 9 10 11 12 13 15 16 9 10 16 15 14 15 18 19 20 20 19 20 19 16 15 14 11 11 10 12 13 12 13 13 14 13 12 11 12 12 11 12 11 10 11 11 10 9 8 8 9 10 9 10 10 10 11 11 13 13 12 8 10 12 11 10 10 9 9 9 8 8
9 9 9 9 9 9 10 11 10 11 12 11 11 11 12 11 11 11 11 11 12 14 14 13 8 8 16 17 16 15 17 18 18 19 18 18 16 15 12 14 10 11 12 13 13 13 11 11 11 11 10 11 10 10 10 11 11 11 9 10 11 11 11 10 10 10 10 11 11 13 9 11 12 10 10 10 10 11 10 10 9 9 8 9 8
9 10 9 9 8 10 11 12 12 12 12 13 12 12 12 12 12 11 11 11 12 12 12 14 10 9 8 8 11 15 17 17 17 17 17 16 18 14 13 12 11 11 11 12 11 11 12 12 10 9 10 10 10 10 10 11 11 10 10 10 9 9 10 11 11 11 11 12 12 12 12 12 11 12 12 12 10 9 9 9 9 9 8 10 10
10 10 10 9 10 12 13 13 14 14 13 12 11 11 12 12 11 10 11 12 12 11 13 12 10 10 11 8 8 8 8 13 16 15 13 13 12 11 12 11 11 11 12 11 11 11 12 12 10 10 10 9 10 10 10 10 10 11 10 10 10 9 10 10 11 12 12 12 14 14 12 10 11 11 11 11 12 11 10 10 10 10 9 10 9
10 14 17 18 15 13 12 13 14 12 12 12 11 11 12 12 11 10 10 10 11 11 10 11 11 11 9 6 4 4 5 5 6 7 7 9 10 10 10 11 11 12 11 10 10 11 11 11 10 9 8 8 8 8 9 8 8 8 9 9 10 9 11 10 11 13 10 7 6 10 11 12 11 10 10 10 11 11 11 11 10 11 11 10 8
11 11 12 15 12 13 13 13 14 13 12 12 12 11 11 11 11 11 10 10 12 11 10 11 11 10 7 4 5 3 6 7 8 7 8 9 9 10 11 12 12 12 11 10 10 10 11 11 10 10 10 9 8 9 8 8 8 8 9 10 10 11 12 12 12 13 11 8 8 11 10 12 10 9 9 8 9 10 12 11 10 10 9 9 9
10 11 12 12 12 11 12 12 12 12 12 12 11 11 12 11 10 10 10 11 11 11 12 12 12 10 7 9 11 10 9 10 8 7 8 9 9 10 11 11 11 12 11 11 10 10 10 10 10 10 10 9 8 9 9 9 9 9 10 10 10 10 10 11 12 12 11 13 13 10 7 10 11 11 11 9 8 9 9 10 10 9 9 8 9
9 10 11 10 11 11 12 15 14 15 14 15 14 13 12 11 11 10 11 11 11 11 12 12 12 10 10 14 14 15 12 10 9 8 8 8 9 10 10 10 10 11 11 11 10 10 10 10 10 10 11 10 9 9 9 9 9 9 10 11 11 11 11 12 12 13 13 12 11 12 12 11 10 10 10 9 11 10 10 10 10 10 9 9 9
10 11 11 11 10 11 13 14 14 14 14 14 14 13 13 13 12 11 11 11 12 12 12 13 12 10 10 12 12 13 11 10 10 10 9 8 8 9 9 10 10 10 11 10 9 9 9 10 10 10 10 10 10 11 12 11 11 11 11 12 12 13 13 12 12 13 12 12 12 12 13 12 11 10 10 10 10 10 10 11 11 10 10 10 9
12 12 13 12 12 12 12 12 13 13 13 15 16 15 14 12 12 12 12 12 12 11 11 12 12 11 10 9 9 9 10 10 9 9 9 8 9 9 9 8 8 9 10 10 9 8 8 9 9 8 8 8 8 9 9 9 10 11 12 13 13 14 14 14 14 14 14 13 13 13 12 11 11 10 10 10 11 12 11 11 11 10 10 9 10
11 11 12 11 11 11 12 11 11 12 14 12 12 14 13 12 13 12 12 13 13 13 12 12 11 11 10 10 9 10 10 9 9 9 9 9 10 9 9 8 8 9 9 9 8 7 8 8 8 8 9 8 8 8 8 8 8 9 9 11 12 15 16 16 15 14 14 15 14 13 12 12 12 11 11 11 11 12 12 12 11 11 11 10 10
10 10 11 11 12 12 12 11 11 11 12 12 12 13 12 12 12 12 12 12 12 12 11 10 10 10 10 10 9 9 9 9 9 9 8 9 9 9 8 8 8 8 7 7 7 8 8 8 8 8 9 9 9 9 8 8 8 9 9 9 10 10 11 12 12 13 14 14 14 14 13 12 12 11 12 12 10 11 11 11 11 10 10 10 9
10 10 11 11 11 12 12 11 11 11 11 12 12 13 12 11 10 10 11 12 12 10 10 10 10 10 10 10 9 9 8 8 8 8 9 10 9 9 8 7 6 6 6 5 5 6 7 7 7 8 8 8 7 8 7 7 7 7 7 7 7 8 8 9 11 12 13 13 14 13 14 13 13 11 13 12 11 12 12 12 11 12 10 9 9
10 10 10 11 11 12 12 11 12 14 13 13 12 12 11 11 11 11 11 11 11 10 10 10 10 10 10 10 9 9 8 8 8 7 8 8 7 6 5 4 5 5 5 5 5 4 5 5 5 5 6 7 7 7 7 6 6 7 6 6 7 8 11 13 11 11 11 12 13 14 15 13 12 12 12 13 13 12 12 11 10 9 9 9 8
10 10 10 11 11 11 11 12 12 11 12 11 11 11 9 9 10 10 10 10 11 11 11 10 10 9 9 9 8 8 7 6 8 7 7 6 3 0 1 2 2 2 3 3 2 2 3 3 4 4 4 4 5 6 6 6 7 7 7 7 10 16 17 17 12 12 14 13 12 12 13 13 14 13 13 13 13 12 11 11 11 11 10 9 9
11 11 11 11 11 11 11 11 11 10 10 10 11 11 12 11 11 11 11 10 10 10 9 9 9 8 8 8 6 7 7 7 7 6 2 0 0 0 1 1 1 1 1 2 2 3 4 4 5 5 5 5 5 4 4 3 3 5 6 8 16 19 19 18 18 21 16 11 13 12 13 13 13 12 11 12 12 13 12 12 11 10 10 11 10
11 10 10 10 10 10 10 9 9 9 10 10 10 10 10 10 9 9 9 9 9 9 8 8 8 8 7 6 4 5 5 4 2 1 2 2 2 2 3 3 3 4 4 4 4 5 5 5 5 6 6 6 6 5 5 4 3 3 7 13 16 16 17 17 15 18 19 15 12 13 13 14 14 13 12 11 11 12 12 13 12 11 10 10 10
Wind_Direction
238 240 240 237 233 230 229 226 227 224 226 226 228 230 230 228 230 231 231 229 227 223 219 218 215 212 206 203 209 211 216 217 216 210 214 214 213 219 222 225 227 227 224 224 220 218 221 226 223 221 219 223 215 216 223 225 224 227 230 233 235 230 230 239 247 256 200 27 88 115 115 132 142 156 151 156 166 181 179 187 182 181 175 178 185
228 232 234 236 234 230 228 228 225 223 225 226 228 231 232 231 230 232 234 234 228 229 228 223 223 219 215 215 212 216 217 217 216 214 213 213 215 214 222 223 226 227 221 223 222 219 217 221 223 219 216 220 214 217 216 221 221 226 225 224 231 228 222 231 238 239 234 137 95 54 100 166 145 172 164 165 183 177 178 180 186 189 185 175 177
237 230 230 231 230 226 223 223 222 223 224 227 229 229 230 231 227 227 230 233 230 234 233 233 225 220 223 221 218 217 219 221 218 221 219 216 215 218 219 222 226 226 224 222 220 219 217 215 218 217 213 217 216 219 216 219 217 222 225 220 226 221 215 218 224 228 228 219 168 164 184 192 170 188 184 183 173 174 174 184 185 193 196 180 168
248 245 244 244 245 238 228 223 222 223 224 225 228 228 225 226 223 226 228 225 230 234 238 243 241 234 233 232 229 228 227 230 231 226 225 219 219 222 222 223 225 227 225 221 217 216 220 219 217 212 211 216 214 216 217 219 218 221 222 221 224 221 218 215 217 233 227 223 204 186 189 165 167 160 163 151 154 171 184 177 182 197 191 173 161
272 272 272 269 260 254 248 237 232 229 232 234 235 231 230 227 221 223 222 228 231 236 236 233 237 241 238 230 229 231 231 231 233 231 229 226 223 222 223 224 225 226 226 224 218 217 218 219 215 209 208 217 215 218 216 220 220 221 222 221 221 219 219 214 219 219 219 215 163 297 146 96 58 124 154 149 148 154 153 177 193 198 194 193 156
262 255 249 252 261 256 251 244 239 238 239 244 245 241 236 231 229 226 228 232 230 232 236 234 231 232 233 232 232 233 231 229 229 230 230 229 229 226 224 225 227 225 225 224 222 217 218 218 214 209 210 214 219 219 218 220 219 222 222 220 218 214 217 218 212 210 209 194 161 149 193 170 141 163 178 158 154 141 143 121 125 217 199 201 207
238 234 236 231 233 233 231 230 229 228 230 232 234 238 237 237 234 237 231 233 234 233 235 242 239 233 228 229 234 235 235 232 231 229 229 229 229 229 228 227 226 226 225 222 221 221 221 220 216 213 215 216 218 217 218 220 215 221 218 220 214 208 213 213 201 203 203 178 177 177 166 182 150 148 167 144 150 163 160 161 208 213 220 207 199
253 243 241 246 236 228 222 222 224 227 227 229 230 231 233 233 236 242 241 237 233 234 237 240 242 237 234 233 235 237 238 237 233 230 227 227 227 229 228 227 229 229 228 226 223 223 224 221 220 216 216 217 217 219 215 217 213 220 216 216 211 209 212 207 204 204 203 193 185 181 170 154 133 92 124 140 145 200 200 186 198 199 208 208 211
276 278 275 268 265 261 250 243 242 239 234 237 236 236 234 232 234 234 238 243 243 246 244 243 244 241 239 237 238 233 236 235 232 229 230 230 229 231 229 229 229 232 233 233 230 228 226 223 221 218 217 218 215 214 213 212 210 218 215 204 207 202 206 202 197 188 196 188 187 105 145 156 169 149 161 179 192 200 184 191 220 203 188 195 219
285 289 271 269 276 278 274 278 269 269 271 269 272 267 255 247 244 241 240 243 251 251 255 252 248 246 243 241 236 235 235 235 230 226 225 227 230 233 232 231 230 231 232 232 231 227 225 223 222 219 217 217 217 218 217 215 215 214 210 197 201 201 199 193 188 184 178 187 194 169 178 197 184 189 186 198 190 145 153 184 204 173 150 205 229
261 267 284 294 299 293 283 276 278 273 271 268 259 256 250 249 251 256 255 250 248 244 243 249 248 249 249 247 242 236 236 235 232 227 227 226 227 230 231 233 230 230 230 230 232 226 226 225 227 219 219 220 219 218 217 218 219 220 214 195 192 189 188 189 193 180 181 196 192 187 198 200 198 187 201 181 185 189 175 177 188 166 185 182 215
269 281 281 290 285 275 272 273 260 260 260 261 261 260 258 254 251 247 251 251 250 255 255 250 252 249 249 250 248 245 242 237 229 229 226 226 224 231 237 237 233 233 230 229 231 226 223 222 221 217 214 211 212 219 223 225 222 217 211 203 199 198 188 181 181 187 189 190 191 202 193 205 189 180 191 177 187 181 178 173 185 189 193 206 212
318 315 318 311 309 305 291 281 270 260 253 251 248 257 258 260 258 259 259 261 268 254 249 249 249 249 247 251 252 251 253 246 232 231 228 228 227 226 238 239 239 238 234 232 230 224 216 217 227 228 223 209 212 213 212 219 220 215 211 205 202 200 202 200 188 184 183 190 195 200 200 191 190 200 191 193 167 173 161 181 191 199 204 210 219
328 317 315 311 315 309 293 279 277 275 276 268 258 256 255 251 255 263 275 271 258 261 259 254 254 247 244 247 253 254 252 251 240 238 233 230 228 226 238 240 243 245 240 234 231 226 221 220 220 219 214 212 209 208 210 211 203 204 208 206 201 207 208 205 202 197 185 189 190 203 205 185 200 198 184 156 162 181 176 195 188 192 201 213 216
320 313 302 297 283 280 283 280 281 284 280 272 262 260 261 272 268 259 262 264 261 260 260 259 255 253 251 248 253 253 251 247 244 242 236 233 231 227 239 244 247 248 244 238 232 229 222 221 222 222 210 208 204 199 201 201 194 195 193 203 204 192 192 197 200 198 197 199 201 208 196 195 202 166 158 175 186 189 187 187 185 188 157 75 68
297 285 293 300 301 301 303 293 290 288 288 285 276 274 269 260 267 262 259 260 257 263 268 263 266 262 255 250 250 254 253 244 243 239 233 231 229 231 236 239 244 246 246 241 235 229 227 223 220 217 210 208 204 198 199 190 190 188 190 195 201 192 200 208 202 199 192 194 199 198 194 189 183 165 163 173 179 154 115 87 106 125 147 171 193
334 335 325 325 324 323 313 305 302 299 298 296 292 287 285 279 265 237 255 255 257 258 259 257 257 259 258 251 249 254 255 239 233 233 227 225 222 231 233 239 243 245 245 243 236 230 223 216 212 214 212 215 203 197 198 187 188 185 189 192 192 186 206 197 189 192 192 195 196 178 171 180 178 162 163 168 168 156 135 137 170 159 169 189 199
338 337 335 333 328 325 317 309 302 299 300 295 293 293 291 283 276 247 247 256 257 253 253 263 257 253 255 255 249 258 259 242 228 227 219 215 211 225 227 233 245 244 251 244 237 233 224 212 212 212 210 212 201 201 197 185 185 185 185 184 185 197 205 178 155 166 171 183 186 173 165 161 163 160 165 167 161 159 161 187 178 163 187 190 196
336 333 329 326 323 318 313 306 299 296 294 291 290 288 284 280 280 271 261 254 257 260 248 259 263 252 248 253 257 254 262 257 239 233 221 214 212 228 229 232 242 244 243 248 238 234 231 220 217 220 216 208 194 196 196 191 186 181 183 177 192 202 200 168 172 174 175 168 190 168 178 172 164 161 166 165 166 175 187 180 155 175 186 190 187
325 322 320 319 318 316 316 314 308 306 299 294 291 282 284 286 280 272 266 259 265 256 251 249 258 260 249 252 252 249 258 264 254 243 232 222 215 219 220 221 230 238 235 240 242 231 228 229 224 223 223 213 200 195 193 192 188 186 177 189 193 210 166 171 190 187 187 190 184 176 173 168 167 157 155 165 173 182 187 171 172 181 187 186 189
318 317 315 313 315 315 317 318 314 310 304 299 298 295 293 288 287 282 276 269 267 269 259 258 258 263 254 249 254 251 247 259 256 242 240 229 223 215 226 224 229 228 233 233 232 235 228 224 226 220 218 216 208 201 195 193 192 186 193 198 203 182 162 182 186 177 174 174 163 165 159 163 167 165 161 168 174 181 184 184 173 190 188 191 189
308 310 309 310 311 310 308 305 304 300 304 307 304 298 294 286 281 279 277 276 275 272 271 268 269 269 264 249 248 251 242 237 253 243 235 232 229 223 224 231 223 226 233 234 226 225 224 213 219 207 212 218 211 205 205 198 194 190 207 217 195 158 171 173 166 168 164 164 162 167 169 168 170 171 171 172 174 176 179 173 133 158 98 83 174
306 310 314 310 304 299 296 296 295 297 294 294 294 296 300 302 294 281 276 279 276 278 278 274 275 277 275 264 252 250 244 239 232 239 238 236 233 229 231 236 223 220 229 234 229 227 220 216 206 190 201 210 212 210 210 207 198 204 200 200 185 169 158 157 157 163 167 169 168 180 181 178 175 176 174 175 170 165 158 120 96 91 89 71 57
317 317 311 306 306 303 299 297 293 291 290 289 286 284 291 293 290 287 280 273 279 280 279 272 269 273 277 278 267 254 247 245 237 231 236 234 236 235 236 236 231 229 230 240 237 223 218 209 197 188 197 204 210 215 218 210 206 204 195 190 168 160 157 155 165 171 168 169 179 185 188 187 177 173 178 169 156 137 112 104 88 86 92 75 57
316 310 309 308 306 303 302 300 301 298 290 284 289 292 290 287 290 285 264 264 263 270 273 272 268 272 278 276 282 277 265 257 254 229 219 223 227 232 236 236 237 233 238 246 242 235 218 199 192 192 198 198 199 206 215 217 217 213 195 176 164 165 169 167 169 167 175 186 189 187 186 188 183 166 131 117 109 96 98 86 87 88 92 86 73
307 303 304 302 299 300 302 301 297 292 293 288 277 275 279 287 287 288 279 265 261 258 267 267 267 266 268 274 276 279 274 267 260 249 217 219 222 228 235 239 242 238 237 247 244 241 231 213 203 199 201 203 201 199 203 209 212 206 195 180 177 178 175 175 177 180 188 185 186 187 183 164 144 131 126 129 133 141 134 128 126 124 123 117 95
295 299 303 305 302 300 296 300 304 302 294 290 284 282 277 276 275 275 271 270 267 265 263 264 266 264 268 272 275 277 273 267 264 260 243 231 225 227 234 247 246 242 240 239 241 240 235 221 216 207 198 194 195 199 201 189 189 195 193 190 195 190 187 187 186 185 182 182 183 182 158 130 102 120 137 145 144 144 142 141 139 147 141 131 118
302 306 307 304 299 296 290 288 290 295 295 298 300 298 286 269 270 268 272 265 271 274 266 265 262 265 273 275 278 279 276 273 261 259 248 230 241 226 226 231 233 234 236 234 230 231 218 173 154 134 134 136 172 172 195 192 200 196 196 196 200 197 193 184 183 204 202 184 163 133 109 129 138 134 134 140 146 145 148 148 149 149 151 140 123
297 297 297 294 290 288 284 283 285 289 294 291 275 269 283 287 274 277 255 236 250 257 274 269 267 268 265 269 275 280 279 276 273 223 239 223 220 232 227 228 226 232 234 219 183 161 172 187 181 169 165 172 177 188 186 190 201 203 205 204 202 197 190 189 194 192 182 158 156 149 151 140 138 151 146 129 144 149 152 143 145 146 152 158 143
303 301 302 299 297 297 296 295 294 290 289 292 294 286 248 235 254 260 278 258 230 242 238 255 262 270 273 267 249 258 269 275 307 292 252 230 222 223 229 228 224 223 219 198 184 198 200 203 199 186 182 185 179 188 190 188 192 195 201 200 203 204 204 202 198 188 181 180 160 158 163 161 147 153 147 135 131 148 151 146 150 153 156 165 148
299 297 300 298 298 299 298 298 296 294 292 292 294 296 306 285 228 233 245 253 253 248 246 249 256 254 250 272 266 250 264 277 280 277 264 236 226 225 227 230 228 223 201 176 199 210 207 207 206 204 204 195 197 197 190 192 195 189 190 190 197 200 203 205 203 189 184 179 167 167 166 165 161 154 150 141 146 147 147 144 145 156 164 164 150
302 302 303 300 301 298 296 295 296 297 295 292 291 298 296 300 305 269 223 247 247 244 251 251 252 253 251 248 260 275 265 268 272 268 256 240 228 221 220 222 226 221 207 185 207 219 208 209 209 210 206 206 207 197 196 198 194 192 189 188 199 196 195 202 197 190 186 177 172 168 168 170 163 158 138 134 144 146 150 151 156 159 159 159 150
294 296 298 299 298 295 294 295 294 293 294 295 295 293 290 297 295 305 303 218 236 250 246 245 247 253 251 251 249 252 262 266 268 266 256 246 234 224 218 220 223 223 208 206 216 218 213 214 216 215 209 215 208 201 203 196 194 193 194 196 195 193 196 195 178 185 187 187 177 175 172 161 161 142 150 138 146 153 156 155 154 156 156 152 145
283 286 294 298 298 297 295 293 292 293 291 290 289 286 286 280 286 289 294 308 302 264 236 235 244 247 250 250 251 252 255 258 259 260 260 254 240 228 218 223 221 219 211 222 219 220 212 213 217 215 212 213 210 202 201 199 197 196 196 198 197 186 187 178 180 188 184 182 178 160 165 147 148 136 144 130 130 144 150 157 155 158 162 161 153
284 281 279 281 286 289 292 292 292 292 293 291 287 286 282 282 277 275 283 285 288 292 301 278 228 227 243 249 243 246 251 254 254 255 254 252 242 232 225 231 221 216 220 228 232 231 222 217 217 216 212 209 209 204 206 198 195 199 197 189 184 181 171 178 189 188 185 179 173 170 166 161 155 159 144 145 155 160 161 159 162 162 157 153 151
281 282 286 286 284 287 289 291 290 290 291 287 286 284 282 282 275 275 272 268 270 281 285 277 280 255 233 240 240 239 242 245 250 251 252 248 242 224 231 234 229 221 219 222 227 236 242 238 227 220 215 216 209 207 205 198 198 196 191 187 189 183 178 178 182 183 184 180 162 157 156 155 163 156 150 158 162 160 157 158 156 159 155 151 152
284 285 286 287 287 287 288 287 285 284 281 281 282 280 277 272 271 272 269 266 269 269 268 282 290 278 242 232 234 237 237 242 245 247 247 244 235 223 234 236 235 231 224 225 223 231 235 240 237 232 221 217 212 209 204 202 194 190 186 185 186 181 186 182 177 177 176 175 158 155 169 168 168 164 165 162 162 157 155 150 150 150 151 147 144
280 282 285 288 291 288 286 284 284 283 279 277 273 274 274 272 270 267 267 270 269 268 272 276 271 275 278 275 191 211 231 234 242 250 247 244 236 229 234 239 238 233 232 223 217 222 232 237 234 236 231 221 218 208 206 203 193 187 180 180 179 184 174 176 176 176 181 173 161 163 166 157 166 166 165 163 161 157 154 154 150 148 143 147 150
284 280 283 289 289 286 286 287 284 283 279 276 275 273 271 273 272 266 266 267 267 265 266 269 269 269 267 268 249 208 214 235 213 226 215 225 228 230 234 237 238 239 237 231 218 219 226 231 230 233 233 225 222 214 208 203 191 186 175 173 175 170 172 178 180 185 176 161 151 168 170 154 166 167 166 160 157 154 152 150 152 149 150 153 156
292 290 289 289 287 285 282 279 281 281 277 278 275 269 270 267 266 268 268 267 266 268 268 267 269 266 264 254 250 211 222 227 229 226 225 225 225 227 230 234 236 237 237 232 228 221 220 225 224 225 224 220 213 210 207 196 189 180 175 178 176 179 183 181 180 180 170 150 152 169 169 170 166 162 160 160 154 150 150 152 151 148 146 146 140
289 287 289 291 286 287 284 281 279 276 279 274 271 272 269 268 267 268 268 267 270 272 269 268 268 268 262 252 245 230 244 249 241 232 231 231 230 230 231 234 235 238 237 236 231 228 221 219 218 221 220 216 211 205 201 197 185 180 181 178 179 183 182 184 181 178 150 156 169 169 152 163 163 162 163 159 140 139 144 139 138 141 141 136 137
287 287 288 286 288 285 283 283 280 280 277 275 272 269 269 269 269 267 266 267 268 268 271 270 267 269 264 252 247 234 235 249 245 243 239 230 232 234 233 234 233 235 237 237 233 229 227 220 217 215 216 210 203 201 195 199 191 184 183 181 181 178 180 182 181 176 170 164 161 164 166 167 164 162 152 145 147 147 143 140 140 141 141 142 141
279 280 280 280 277 276 277 277 279 279 277 276 275 274 270 268 269 267 266 265 265 265 267 268 270 269 262 257 250 238 238 245 246 242 243 237 237 237 235 233 232 232 233 236 234 231 228 225 220 214 211 207 202 199 197 196 190 190 187 185 181 179 178 174 172 173 168 163 164 164 165 164 162 159 153 149 148 147 145 139 139 142 141 141 144
280 280 279 276 273 270 264 266 269 268 267 271 272 273 273 275 273 271 270 268 265 264 264 266 268 268 266 261 250 241 243 245 244 241 242 242 243 241 240 237 233 233 232 233 231 228 225 224 222 214 204 203 204 205 207 204 195 195 189 186 184 180 176 176 174 171 166 164 161 160 161 162 161 154 148 151 152 150 143 141 140 142 142 144 145
274 276 275 274 274 271 271 266 264 267 271 270 269 269 267 264 264 264 262 263 265 263 261 262 265 265 268 264 257 251 249 246 244 243 243 245 248 247 243 240 235 233 234 233 227 217 219 218 214 204 201 202 198 200 204 204 199 198 198 191 190 186 184 179 176 170 163 159 158 157 158 158 159 156 153 154 156 148 143 144 143 140 140 146 149
268 269 268 269 272 269 269 267 265 263 266 266 266 266 263 263 261 260 260 262 260 261 263 263 264 265 265 267 262 257 253 248 243 242 244 245 248 250 247 242 240 234 233 228 216 209 212 210 205 204 199 198 195 198 199 201 195 196 193 200 198 198 189 174 161 157 159 158 157 157 154 153 153 155 156 154 152 144 138 137 139 144 146 146 144
273 269 270 268 268 269 269 270 271 267 264 263 263 263 264 262 261 262 261 262 265 267 266 266 268 267 267 265 264 261 256 251 247 245 247 250 251 252 251 247 239 232 224 216 204 202 201 201 200 198 197 197 195 195 190 191 191 192 188 182 179 168 167 161 158 159 157 156 153 149 152 149 147 145 149 146 139 136 135 139 143 144 144 144 143
278 278 274 275 275 274 274 272 272 270 267 266 265 262 260 262 261 261 262 264 263 263 263 262 260 259 260 260 262 263 261 259 256 254 253 254 254 256 249 230 216 218 209 204 197 187 183 180 175 170 175 177 177 184 184 179 183 179 175 164 164 165 154 150 152 150 150 149 152 149 145 142 139 144 148 145 140 138 137 138 137 137 138 138 137
275 274 272 271 270 271 273 275 273 272 271 273 269 266 267 267 266 265 262 261 261 261 261 262 263 261 261 263 264 265 264 258 257 258 257 258 269 237 209 213 220 206 202 197 163 138 129 129 141 147 148 152 161 164 166 170 169 170 164 162 152 147 147 148 149 149 147 148 145 140 135 135 140 143 142 140 139 137 134 135 137 138 137 136 135
270 267 266 266 265 265 267 266 269 271 279 277 278 278 276 274 273 271 271 270 268 267 266 266 266 266 267 268 268 265 262 257 255 256 262 354 54 58 65 90 101 78 73 82 80 86 80 99 113 111 102 98 101 101 107 119 147 148 151 148 147 148 150 149 146 145 146 147 141 135 133 134 137 137 137 135 135 133 135 137 139 139 141 141 141
269 268 267 268 268 270 272 272 273 273 272 272 275 277 278 278 277 278 278 276 274 274 274 275 275 275 271 271 275 278 274 280 308 21 62 67 56 59 64 76 74 68 66 63 57 56 62 64 71 82 91 90 89 89 89 88 67 58 128 139 141 142 141 140 143 144 138 133 129 129 132 135 135 134 134 133 133 135 138 137 138 139 141 141 141